User: anonymous   Login
Location: Utrecht
(52.0830°N, 5.1330°E)
Time: 13:59:59
(UTC+02:00)
Language:

Cosmos 1092 Rocket - Orbit

View from above orbital plane
View from above orbital plane
View from above satellite
View from above satellite

Ground track
Ground track

The orbit data is extracted from the following two-line orbital elements,

1 11327U 79030B   16206.44008383 -.00000027  00000-0 -43164-4 0  9991
2 11327  82.9497 179.2121 0028270  20.0821  93.4122 13.76967566874039
Epoch (UTC): 24 July 2016 10:33:43
Eccentricity: 0.0028270
inclination: 82.9497°
perigee height: 954 km
apogee height: 995 km
right ascension of ascending node: 179.2121°
argument of perigee: 20.0821°
revolutions per day: 13.76967566
mean anomaly at epoch: 93.4122°
orbit number at epoch: 87403

The dashed part of the orbit path shows where the satellite is in the earth's shadow,  

DLR